Home > Weather > Makati > Past weeks

Flag for Philippines Past Weather in Makati, Philippines — Yesterday and Last 2 Weeks

Now
88 °F

Scattered clouds.


Feels Like: 98 °F
Forecast: 82 / 93 °F
Wind: 5 mph from Northwest

Location: National Airport

Current Time: Jun 1, 2016 at 9:45:56 AM

Latest Report: Jun 1, 2016 at 9:00 AM


Visibility: 6 mi

Pressure: 29.89 "Hg

Humidity: 66%

Dew Point: 75 °F

Location of MakatiLocation

Past Weather in Makati — Graph

°F

Makati Temperature Yesterday

Maximum temperature yesterday: 91 °F (at 10:00 AM)
Minimum temperature yesterday: 82 °F (at 12:00 AM)
Average temperature yesterday: 85 °F

High & Low Weather Summary for the Past Weeks

 TemperatureHumidityPressure
High97 °F (May 18, 1:00 PM)100% (May 19, 1:00 AM)29.92 "Hg (May 19, 1:00 AM)
Low79 °F (May 19, 2:00 AM)43% (May 19, 3:00 PM)29.65 "Hg (May 24, 5:00 AM)
Average86 °F80%29.82 "Hg
* Reported May 17 8:00 AM — Jun 1 8:00 AM, Makati, Weather by CustomWeather, © 2016

Note: Actual official high and low records may vary slightly from our data, if they occured in-between our weather recording intervals... More about our weather records

Advertising

Makati Weather History for the Previous 24 Hours

Scroll right to see more
 ConditionsComfort  
Time TempWeatherWind HumidityBarometerVisibility
8:00 AM
Wed, Jun 1
86 °FScattered clouds.2 mph75%29.86 "Hg5 mi
7:00 AM82 °FBroken clouds.3 mph94%29.86 "Hg4 mi
6:00 AM81 °FPartly sunny.3 mph94%29.86 "Hg5 mi
5:00 AM82 °FPartly cloudy.6 mph94%29.83 "Hg6 mi
4:00 AM82 °FPassing clouds.6 mph94%29.83 "Hg6 mi
3:00 AM81 °FPassing clouds.No wind100%29.83 "Hg6 mi
2:00 AM82 °FPassing clouds.No wind100%29.83 "HgN/A
1:00 AM82 °FPassing clouds.2 mph94%29.83 "HgN/A
12:00 AM82 °FPassing clouds.3 mph89%29.86 "HgN/A
11:00 PM
Tue, May 31
84 °FPartly cloudy.2 mph79%29.86 "HgN/A
10:00 PM84 °FPartly cloudy.5 mph79%29.89 "HgN/A
9:00 PM82 °FPartly cloudy.6 mph100%29.86 "Hg5 mi
8:00 PM82 °FMostly cloudy.5 mph100%29.86 "Hg5 mi
7:00 PM82 °FMostly cloudy.3 mph100%29.86 "Hg6 mi
6:00 PM82 °FMore clouds than sun.No wind100%29.83 "HgN/A
5:00 PM82 °FLight rain. More clouds than sun.No wind100%29.80 "Hg5 mi
4:00 PM86 °FSprinkles. More clouds than sun.6 mph89%29.83 "HgN/A
3:00 PM84 °FThunderstorms. Broken clouds.3 mph100%29.83 "HgN/A
2:45 PM84 °FThunderstorms. Broken clouds.6 mph100%29.80 "Hg6 mi
2:00 PM90 °FBroken clouds.10 mph67%29.80 "HgN/A
1:00 PM91 °FScattered clouds.10 mph63%29.80 "HgN/A
12:00 PM91 °FCloudy.10 mph63%29.83 "HgN/A
11:00 AM91 °FBroken clouds.8 mph59%29.86 "HgN/A
10:00 AM91 °FScattered clouds.3 mph59%29.86 "HgN/A
9:00 AM88 °FScattered clouds.5 mph66%29.89 "HgN/A
Weather by CustomWeather, © 2016

See weather overviewHow to use our weather pages